Regional Weather Roundup
Issued by NWS

Home | Current Version | Previous Version | Text Only | Print | Product List | Glossary Off
Versions: 1 2 3 4 5 6 7 8 9 10 11 12 13 14 15 16 17 18 19 20 21 22 23 24 25 26 27 28 29 30 31 32 33 34 35 36 37 38 39 40 41 42 43 44 45 46 47 48 49 50

000
ASUS43 KLOT 060021
RWRIL

ILLINOIS REGIONAL WEATHER ROUNDUP
NATIONAL WEATHER SERVICE CHICAGO/ROMEOVILLE IL
700 PM CDT SUN JUL 05 2015

NOTE: "FAIR" INDICATES FEW OR NO CLOUDS BELOW 12,000 FEET WITH NO
SIGNIFICANT WEATHER AND/OR OBSTRUCTIONS TO VISIBILITY.

* THESE STATIONS ARE NOT UNDER NWS QUALITY CONTROL. THEY ALSO MAY NOT
  REPORT WEATHER SUCH AS PRECIPITATION OR FOG.

ILZ001-002-007-009-015-016-024-060100-
NORTHWEST ILLINOIS

CITY           SKY/WX    TMP DP  RH WIND       PRES   REMARKS
MOLINE         PTSUNNY   80  67  64 SE10      29.98F HX  82
6HR MIN TEMP:  79; 6HR MAX TEMP:  83;

STERLING*      SUNNY     79  64  61 S5        30.00F HX  81
SAVANNA*       MOSUNNY   78  65  65 S7        29.98F HX  80
$$

ILZ003-004-008-010-011-017-018-060100-
NORTH CENTRAL ILLINOIS

CITY           SKY/WX    TMP DP  RH WIND       PRES   REMARKS
ROCKFORD       MOSUNNY   80  64  58 S10       30.02F HX  82
6HR MIN TEMP:  80; 6HR MAX TEMP:  83; 6HR PCP: TRACE;

FREEPORT*      SUNNY     77  65  66 S10       30.02F
ROCHELLE*      SUNNY     78  65  65 S5        30.03S
DE KALB*       SUNNY     76  63  64 S9        30.04S
PERU*          MOSUNNY   80  62  54 S8        30.02F HX  81
$$

ILZ005-006-012>014-019>023-060100-
NORTHEAST ILLINOIS

CITY           SKY/WX    TMP DP  RH WIND       PRES   REMARKS
CHICAGO-OHARE  MOSUNNY   79  62  56 S8        30.02S HX  80
6HR MIN TEMP:  79; 6HR MAX TEMP:  83;

CHICAGO-MIDWAY MOSUNNY   83  60  45 S9        30.02S HX  83
6HR MIN TEMP:  82; 6HR MAX TEMP:  85;

AURORA         SUNNY     79  62  56 S6        30.03S HX  80
6HR MIN TEMP:  79; 6HR MAX TEMP:  83;

LANSING*       SUNNY     79  57  47 S6        30.04S HX  80
JOLIET*        SUNNY     80  65  60 CALM      30.03S HX  82
WAUKEGAN       SUNNY     73  60  63 SE9       30.01F
6HR MIN TEMP:  73; 6HR MAX TEMP:  78;

DUPAGE AIRPORT SUNNY     78  63  59 S6        30.02F HX  80
6HR MIN TEMP:  78; 6HR MAX TEMP:  82;

KANKAKEE*      SUNNY     79  64  59 S3        30.04S HX  81
WHEELING       SUNNY     81  60  48 S9        30.03S HX  82
6HR MIN TEMP:  81; 6HR MAX TEMP:  84;

MORRIS*        MOSUNNY   80  62  54 SW5       30.01F HX  81
ROMEOVILLE*    SUNNY     79  60  51 S7        30.03S HX  80
NORTHERLY ISL    N/A     71  62  73 S2          N/A
$$

LMZ740>746-060100-
SOUTHERN LAKE MICHIGAN

STATION/POSITION SKY/WX   TEMP    WIND        PRES    VSBY  WAVE
                          AIR SEA DIR/SP/G                  HT/PER
                          (F)     (DEG/KT/KT) (MB)    (MI)  (FT/S)
HARRISON CRIB              71     100/ 14/ 16   N/A
BURNHAM HARBOR             71     180/  2/  4   N/A
CALUMET HARBOR             74      90/  8/ 10   N/A
BURNS HARBOR               74      70/  4/  7 1017.9S
MICHIGAN CITY              70      40/  8/ 10   N/A
MICHIGAN CITY 6N           70 68   70/  6/  8   N/A           1
ST. JOSEPH                 71 68                N/A           0
$$

ILZ025>027-034>036-040-047-049-050-058-095>099-060100-
WEST-CENTRAL ILLINOIS

CITY           SKY/WX    TMP DP  RH WIND       PRES   REMARKS
QUINCY         PTSUNNY   81  68  64 SE8       29.98F HX  84
GALESBURG*     PTSUNNY   77  67  70 SE3       29.99F
MACOMB*        PTSUNNY   80  69  69 SE5       30.01F HX  83
JACKSONVILLE*  SUNNY     80  70  70 SE5       29.99F HX  83
PITTSFIELD*    MOSUNNY   82  69  65 SE5       30.01S HX  85
$$

ILZ028>032-037-038-041>044-048-051>054-059>061-060100-
CENTRAL ILLINOIS

CITY           SKY/WX    TMP DP  RH WIND       PRES   REMARKS
PONTIAC        SUNNY     79  67  67 S6        30.04S HX  81
BLOOMINGTON    MOSUNNY   79  67  66 S8        30.05S HX  81
DECATUR        SUNNY     80  65  59 S6        30.03F HX  82
PEORIA         SUNNY     82  65  56 S8        30.01F HX  84
6HR MIN TEMP:  82; 6HR MAX TEMP:  84;

LACON*         SUNNY     79  64  60 SE6       30.00F HX  81
LINCOLN*       SUNNY     81  67  63 SE3       30.01F HX  83
SPRINGFIELD    SUNNY     81  67  62 SE8       30.01F HX  83
6HR MIN TEMP:  81; 6HR MAX TEMP:  85;

TAYLORVILLE    SUNNY     79  68  69 SE3       30.02S HX  81
$$

ILZ033-039-045-046-055>057-062-063-060100-
EAST-CENTRAL ILLINOIS

CITY           SKY/WX    TMP DP  RH WIND       PRES   REMARKS
CHAMPAIGN      SUNNY     80  69  69 CALM      30.03F HX  83
DANVILLE*      SUNNY     77  68  74 CALM      30.01F HAZE
RANTOUL*       SUNNY     81  70  70 CALM      30.03F HX  84
MATTOON        SUNNY     80  67  64 CALM      30.02F HX  82
PARIS*         SUNNY     80  69  68 CALM      30.04F HX  83
$$

ILZ079-100>102-060100-
SOUTHWEST ILLINOIS

CITY           SKY/WX    TMP DP  RH WIND       PRES   REMARKS
ALTON          SUNNY     81 N/A N/A CALM        N/A
BELLEVILLE     SUNNY     82  69  64 SE6       29.99S HX  86
CAHOKIA*       SUNNY     83  66  56 S6        29.99S HX  85
SPARTA*        SUNNY     82  67  60 SE3       30.02R HX  84
$$

ILZ064>066-069>071-074>076-080>082-084>086-088>090-092>094-060100-
SOUTH-CENTRAL ILLINOIS

CITY           SKY/WX    TMP DP  RH WIND       PRES   REMARKS
CARBONDALE     SUNNY     82  67  60 S5        30.01S HX  84
6HR MIN TEMP:  81; 6HR MAX TEMP:  84;

CAIRO*         SUNNY     81  69  66 SE3       30.02S HX  84
EFFINGHAM*     SUNNY     82  61  49 CALM      30.04S HX  83
MARION         SUNNY     82  68  61 CALM      30.02S HX  85
MT. VERNON     SUNNY     82  64  54 S3        30.03R HX  84
CENTRALIA*     SUNNY     80  66  61 SE3       30.02F HX  82
SALEM*         SUNNY     83  62  50 S3        30.02S HX  83
$$

ILZ067-068-072-073-078-083-087-091-060100-
SOUTHEAST ILLINOIS

CITY           SKY/WX    TMP DP  RH WIND       PRES   REMARKS
LAWRENCEVILLE  MOSUNNY   81  69  67 S5        30.03S HX  84
FLORA*         SUNNY     81  66  60 CALM      30.02S HX  83
FAIRFIELD*     MOSUNNY   81  70  69 CALM      30.01S HX  85
HARRISBURG*    SUNNY     82  67  60 CALM      30.03S HX  84
ROBINSON*      PTSUNNY   81  69  68 CALM      30.04R HX  84
CARMI*         SUNNY     83  63  51 CALM      30.02R HX  84
$$

ABBREVIATIONS USED IN REMARKS
   TC - TEMPERATURE IN CELSIUS
  WCI - WIND CHILL INDEX
   HX - HEAT INDEX
  VSB - VISIBILITY
$$




USA.gov is the U.S. government's official web portal to all federal, state and local government web resources and services.